[[{"header":{"parameterUnit":"m.s-1","parameterCategory":1,"la1":30.2992,"la2":30.254,"lo1":-89.0895,"lo2":-89.0443,"dy":0.0025,"dx":0.0025,"nx":19,"ny":19,"refTime":"2026-03-13T09:00:00:Z","depth":0,"parameterNumber":2,"parameterNumberName":"U-component_of_WINDS"},"data":[0,0,0,-2.9844,-2.9845,-2.9899,-2.9899,-2.9988,-2.9989,0,0,0,0,0,0,0,0,0,0,0,-2.9841,-2.9842,-2.9844,-2.9845,-2.9899,-2.9899,-2.9987,-2.9989,0,0,0,0,0,0,0,0,0,0,0,-2.984,-2.9842,-2.9843,-2.9846,-2.9899,-2.9899,-2.9987,-2.994,0,0,0,0,0,0,0,0,0,0,-2.9884,-2.9894,-2.9841,-2.9843,-2.9846,-2.9898,-2.9899,-2.9937,-2.9943,-2.9973,0,-3.0003,0,-2.9997,-2.9996,-2.9996,0,0,0,-2.9836,-2.989,-2.9892,-2.9843,-2.9847,-2.9898,-2.9872,-2.994,-2.9946,-2.998,-3.0004,-3.0007,-2.9999,-2.9997,-2.9997,-3.0203,-3.0205,0,0,-2.9833,-2.9857,-2.9888,-2.9897,-2.9891,-2.987,-2.9874,-2.9943,-2.9971,-3.0004,-3.0008,-3.0,-2.9997,-2.9998,-3.0202,-3.0204,0,0,0,-2.9831,-2.9856,-2.9856,-2.9894,-2.9902,-2.9872,-2.9876,-2.9968,-2.9966,-3.0009,-3.0001,-2.9998,-2.9999,-3.02,-3.0203,-3.0297,0,0,0,-2.9829,-2.9855,-2.9856,-2.9871,-2.9901,-2.9936,-2.9899,-2.9961,-2.9968,-3.0001,-2.9998,-3.0,-3.0199,-3.0202,-3.0291,-3.0337,0,0,0,-2.9833,-2.9855,-2.9867,-2.9872,-2.9896,-2.9934,-2.9936,-2.9962,-2.9964,-2.9996,-3.0001,-3.0198,-3.0201,-3.0286,-3.0328,-3.0399,0,0,0,-2.9845,-2.995,-2.9869,-2.9984,-2.9896,-2.9992,-2.9935,-3.0005,-3.0044,-2.9999,-3.0199,-3.0202,-3.0284,-3.0323,-3.0393,-3.0462,-3.0494,0,0,-2.9991,-2.9969,-3.0034,-2.9963,-3.008,-2.9982,-3.0112,-3.0125,-3.0105,-3.0172,-3.0176,-3.0293,-3.0328,-3.0398,-3.066,-3.0685,0,0,0,-3.0089,-3.0136,-3.0162,-3.02,-3.0213,-3.0227,-3.0216,-3.0221,-3.0276,-3.0144,-3.0337,-3.0357,-3.0397,-3.0428,-3.045,-3.0482,-3.0218,-3.0218,-3.0218,-3.0332,-3.0301,-3.0407,-3.0383,-3.0421,-3.041,-3.0438,-3.0442,-3.04,-3.0446,-3.0465,-3.0628,-3.0667,-3.0682,-3.0717,-3.0499,-3.05,-3.05,-3.05,-3.0543,-3.0605,-3.0547,-3.0629,-3.0596,-3.0665,-3.0658,-3.0626,-3.0684,-3.0611,-3.0645,-3.0567,-3.0711,-3.0739,-3.0507,-3.0506,-3.0505,-3.0504,-3.0504,-3.0699,-3.0723,-3.0727,-3.078,-3.0824,-3.0796,-3.0855,-3.0823,-3.0793,-3.0826,-3.0843,-3.0841,-3.0836,-3.0837,-3.0837,-3.0838,-3.0838,-3.0839,-3.0839,-3.0858,-3.086,-3.0914,-3.0936,-3.0956,-3.0979,-3.0969,-3.0988,-3.1001,-3.0973,-3.0973,-3.0927,-3.0731,-3.0682,-3.0848,-3.0846,-3.0845,-3.0844,-3.0844,-3.1084,-3.1028,-3.1112,-3.1132,-3.1155,-3.1201,-3.116,-3.1202,-3.1213,-3.1243,-3.1189,-3.105,-3.1024,-3.1007,-3.0966,-3.1196,-3.1196,-3.1196,-3.1196,-3.1215,-3.1199,-3.1277,-3.1312,-3.1343,-3.1314,-3.1409,-3.1403,-3.1386,-3.1391,-3.1354,-3.1297,-3.1281,-3.1265,-3.1242,-3.1204,-3.1488,-3.1489,-3.1489,-3.1352,-3.1338,-3.1425,-3.1409,-3.1425,-3.1439,-3.1527,-3.157,-3.154,-3.15,-3.1395,-3.1382,-3.1291,-3.1263,-3.122,-3.1185,-3.1114,0,0]},{"header":{"parameterUnit":"m.s-1","parameterCategory":1,"la1":30.2992,"la2":30.254,"lo1":-89.0895,"lo2":-89.0443,"dy":0.0025,"dx":0.0025,"nx":19,"ny":19,"refTime":"2026-03-13T09:00:00:Z","depth":0,"parameterNumber":3,"parameterNumberName":"V-component_of_WINDS"},"data":[0,0,0,-0.6247,-0.6246,-0.6187,-0.6187,-0.6119,-0.6119,0,0,0,0,0,0,0,0,0,0,0,-0.6272,-0.6271,-0.6247,-0.6246,-0.6187,-0.6187,-0.6119,-0.6119,0,0,0,0,0,0,0,0,0,0,0,-0.6272,-0.6272,-0.6271,-0.6246,-0.6187,-0.6187,-0.612,-0.6161,0,0,0,0,0,0,0,0,0,0,-0.6216,-0.6246,-0.6272,-0.6271,-0.6246,-0.6187,-0.6187,-0.6162,-0.6158,-0.615,0,-0.6147,0,-0.6132,-0.6115,-0.6115,0,0,0,-0.624,-0.625,-0.6228,-0.6271,-0.6245,-0.6188,-0.6212,-0.616,-0.6155,-0.6144,-0.6146,-0.6143,-0.6131,-0.6115,-0.6114,-0.609,-0.609,0,0,-0.6243,-0.6265,-0.6232,-0.6225,-0.6237,-0.6214,-0.621,-0.6157,-0.6159,-0.6145,-0.6141,-0.613,-0.6114,-0.6114,-0.609,-0.609,0,0,0,-0.6257,-0.6267,-0.6246,-0.6228,-0.6217,-0.6213,-0.6208,-0.6161,-0.6153,-0.614,-0.6129,-0.6114,-0.6113,-0.609,-0.609,-0.6119,0,0,0,-0.6258,-0.6275,-0.6248,-0.626,-0.6219,-0.6189,-0.6214,-0.6157,-0.615,-0.6129,-0.6114,-0.6113,-0.609,-0.609,-0.6117,-0.6129,0,0,0,-0.6273,-0.6276,-0.627,-0.6261,-0.6237,-0.619,-0.6178,-0.6155,-0.6143,-0.6115,-0.6113,-0.609,-0.609,-0.6116,-0.6127,-0.6128,0,0,0,-0.6294,-0.6297,-0.6271,-0.6269,-0.6238,-0.6208,-0.6178,-0.6155,-0.6134,-0.6114,-0.609,-0.609,-0.6116,-0.6126,-0.6127,-0.6132,-0.6137,0,0,-0.6309,-0.6299,-0.6296,-0.6272,-0.6253,-0.6216,-0.6199,-0.616,-0.6137,-0.6106,-0.6105,-0.6118,-0.6127,-0.6127,-0.6155,-0.6159,0,0,0,-0.6308,-0.6306,-0.6296,-0.6278,-0.6248,-0.6223,-0.6183,-0.6168,-0.6141,-0.6126,-0.6118,-0.6122,-0.6122,-0.6123,-0.6127,-0.6124,-0.6092,-0.6092,-0.6092,-0.6359,-0.633,-0.6323,-0.6286,-0.6268,-0.6227,-0.6209,-0.618,-0.6157,-0.6155,-0.6146,-0.6166,-0.6169,-0.6171,-0.6169,-0.6146,-0.6146,-0.6146,-0.6147,-0.6378,-0.637,-0.6337,-0.6318,-0.6286,-0.6268,-0.6227,-0.621,-0.6187,-0.6171,-0.6169,-0.6154,-0.6176,-0.6172,-0.6148,-0.6148,-0.6148,-0.6148,-0.6148,-0.6408,-0.6399,-0.6381,-0.635,-0.6328,-0.629,-0.627,-0.6241,-0.6214,-0.6212,-0.6198,-0.6198,-0.6193,-0.6207,-0.6207,-0.6208,-0.6208,-0.6208,-0.6208,-0.6447,-0.6425,-0.6413,-0.638,-0.6363,-0.6337,-0.6293,-0.6275,-0.6247,-0.6228,-0.6227,-0.6202,-0.6184,-0.618,-0.6209,-0.6208,-0.6208,-0.6208,-0.6208,-0.6476,-0.6464,-0.6446,-0.6429,-0.6386,-0.6366,-0.6329,-0.6294,-0.6274,-0.6264,-0.6239,-0.623,-0.6218,-0.6215,-0.6211,-0.6246,-0.6246,-0.6246,-0.6246,-0.6501,-0.6492,-0.6465,-0.644,-0.6412,-0.6376,-0.6352,-0.6316,-0.6278,-0.6263,-0.6253,-0.6246,-0.6244,-0.6233,-0.6229,-0.6225,-0.6263,-0.6263,-0.6263,-0.6517,-0.6504,-0.6491,-0.6454,-0.6418,-0.6387,-0.6363,-0.6332,-0.6285,-0.6263,-0.625,-0.625,-0.6237,-0.6235,-0.6214,-0.6209,-0.6202,0,0]}]]